Flag for Austria Weather past 2 weeks in Melk, Lower Austria, Austria

Now
71 °F

Mild.


Feels Like: 72 °F
Forecast: 58 / 86 °F
Wind: 3 mph from Northeast

Location: Amstetten

Current Time: Aug 1, 2014 at 3:10:00 PM

Latest Report: Aug 1, 2014 at 2:00 PM


Visibility: N/A

Pressure: 29.89 "Hg

Humidity: 77%

Dew point: 63 °F

Location of MelkLocation

Historic Weather in Melk — Graph

°F

Melk temperature yesterday

Maximum temperature yesterday: 71 °F (at 2:00 PM)
Minimum temperature yesterday: 63 °F (at 11:00 PM)
Average temperature yesterday: 67 °F

Past Weeks' High & Low Weather Summary

 TemperatureHumidityPressure
High94 °F (Jul 20, 5:00 PM)100% (Jul 24, 8:00 AM)30.14 "Hg (Jul 24, 8:00 AM)
Low54 °F (Jul 24, 5:00 AM)33% (Jul 20, 5:00 PM)29.64 "Hg (Jul 29, 7:00 PM)
Average70 °F78%29.88 "Hg
* Reported Jul 17 1:00 PM — Aug 1 1:00 PM, Melk, Weather by CustomWeather, © 2014

Note: Actual official high and low records may vary slightly from our data, if they occured in-between our weather recording intervals... More about our weather records

Advertising

Melk weather history for previous 24 hours

 ConditionsComfort  
Time TempWeatherWind HumidityBarometerVisibility
1:00 PM
Aug 1
70 °FMild.2 mph79%29.90 "HgN/A
12:00 PM69 °FMild.2 mph82%29.91 "HgN/A
11:00 AM68 °FMild.1 mph85%29.93 "HgN/A
10:00 AM66 °FMild.1 mph86%29.93 "HgN/A
9:00 AM66 °FMild.1 mph92%29.93 "HgN/A
8:00 AM64 °FOvercast.1 mph96%29.93 "HgN/A
7:00 AM63 °FMild.1 mph96%29.94 "HgN/A
6:00 AM63 °FMild.1 mph97%29.94 "HgN/A
5:00 AM63 °FMild.1 mph97%29.95 "HgN/A
4:00 AM63 °FMild.No wind97%29.96 "HgN/A
3:00 AM63 °FMild.1 mph97%29.96 "HgN/A
2:00 AM63 °FMild.2 mph97%29.98 "HgN/A
1:00 AM63 °FFog.2 mph97%29.98 "HgN/A
12:00 AM63 °FMild.2 mph97%29.98 "HgN/A
11:00 PM
Jul 31
63 °FMild.2 mph98%29.98 "HgN/A
10:00 PM64 °FFog.2 mph96%29.98 "HgN/A
9:00 PM64 °FMild.1 mph94%29.97 "HgN/A
8:00 PM64 °FMild.2 mph95%29.94 "HgN/A
7:00 PM65 °FSprinkles. Cloudy.1 mph95%29.94 "HgN/A
6:00 PM67 °FFog.2 mph87%29.92 "HgN/A
5:00 PM69 °FMild.1 mph85%29.91 "HgN/A
4:00 PM69 °FMild.1 mph81%29.90 "HgN/A
3:00 PM70 °FMild.1 mph80%29.88 "HgN/A
Weather by CustomWeather, © 2014

See weather overviewHow to use our weather pages